El Centro, CA

8:37 PM PDT on March 22, 2017 (GMT -0700)
El Centro Naval Air Facility

Weather History for KNJK - September, 2012

Change the Weather History Date:

Wednesday, September 5, 2012

  Actual Average Record
Temperature  
Mean Temperature 93 °F -  
Max Temperature 105 °F 102 °F 109 °F (2008)
Min Temperature 81 °F 77 °F 72 °F (2000)
Cooling Degree Days 28    
Growing Degree Days 43 (Base 50)    
Moisture  
Dew Point 64 °F    
Average Humidity 44    
Maximum Humidity 82    
Minimum Humidity 15    
Precipitation  
Precipitation 0.00 in - - ()
Sea Level Pressure  
Sea Level Pressure 29.86 in    
Wind  
Wind Speed 6 mph (WSW)    
Max Wind Speed 16 mph    
Max Gust Speed 16 mph    
Visibility 10 miles    
Events      
Averages and records for this station are not official NWS values.
T = Trace of Precipitation, MM = Missing Value Source: NWS Daily Summary

Daily Weather History Graph

Daily Weather History Graph

Search for Another Location

Airport or City:

Trip Planner

Search our weather history database for the weather conditions in past years. The results will help you decide how hot, cold, wet, or windy it might be!

Date:

Astronomy

Sep. 05, 2012 Rise Set
Actual Time 6:20 AM PDT 7:01 PM PDT
Civil Twilight 5:55 AM PDT 7:26 PM PDT
Nautical Twilight 5:25 AM PDT 7:55 PM PDT
Astronomical Twilight 4:55 AM PDT 8:25 PM PDT
Moon 9:55 PM PDT (9/5) 11:08 AM PDT (9/5)
Length of Visible Light 13h 31m
Length of Day
12h 41m
Waning Gibbous, 75% of the Moon is Illuminated
Sep 5
Waning Gibbous
Sep 8
Last Quarter
Sep 15
New
Sep 22
First Quarter
Sep 29
Full

Hourly Weather History & Observations

Time (PDT) Temp. Heat Index Dew Point Humidity Pressure Visibility Wind Dir Wind Speed Gust Speed Precip Events Conditions
12:56 AM 84.9 °F 88.8 °F 69.1 °F 59% 29.91 in 10.0 mi ENE 8.1 mph - N/A   Clear
1:56 AM 82.9 °F 90.2 °F 75.0 °F 77% 29.90 in 10.0 mi East 5.8 mph - N/A   Clear
2:56 AM 84.0 °F 92.6 °F 75.9 °F 76% 29.88 in 10.0 mi SSE 4.6 mph - N/A   Clear
3:56 AM 84.0 °F 91.9 °F 75.0 °F 74% 29.88 in 10.0 mi South 3.5 mph - N/A   Clear
4:56 AM 82.0 °F 88.6 °F 75.0 °F 79% 29.87 in 10.0 mi Calm Calm - N/A   Clear
5:56 AM 82.9 °F 88.8 °F 73.0 °F 72% 29.88 in 10.0 mi ENE 3.5 mph - N/A   Clear
6:56 AM 81.0 °F 86.7 °F 75.0 °F 82% 29.91 in 10.0 mi Calm Calm - N/A   Scattered Clouds
7:56 AM 87.1 °F 93.6 °F 72.0 °F 61% 29.92 in 10.0 mi SSE 4.6 mph - N/A   Scattered Clouds
8:56 AM 89.1 °F 96.0 °F 72.0 °F 57% 29.93 in 10.0 mi Calm Calm - N/A   Scattered Clouds
9:56 AM 91.9 °F 99.5 °F 72.0 °F 52% 29.93 in 10.0 mi West 5.8 mph - N/A   Partly Cloudy
10:56 AM 95.0 °F 101.3 °F 70.0 °F 44% 29.92 in 10.0 mi WSW 5.8 mph - N/A   Partly Cloudy
11:56 AM 99.0 °F 105.5 °F 69.1 °F 38% 29.91 in 10.0 mi NW 6.9 mph - N/A   Partly Cloudy
12:56 PM 100.0 °F 103.6 °F 64.9 °F 32% 29.88 in 10.0 mi NNW 6.9 mph - N/A   Partly Cloudy
1:56 PM 100.9 °F 104.6 °F 64.9 °F 31% 29.85 in 10.0 mi Variable 3.5 mph - N/A   Partly Cloudy
2:56 PM 104.0 °F 108.1 °F 64.9 °F 28% 29.82 in 10.0 mi NNE 9.2 mph - N/A   Partly Cloudy
3:56 PM 105.1 °F 107.8 °F 62.1 °F 25% 29.79 in 10.0 mi NNE 9.2 mph - N/A   Partly Cloudy
4:56 PM 102.0 °F 103.3 °F 61.0 °F 26% 29.78 in 10.0 mi SE 4.6 mph - N/A   Partly Cloudy
5:56 PM 102.0 °F 103.9 °F 62.1 °F 27% 29.78 in 10.0 mi Calm Calm - N/A   Partly Cloudy
6:56 PM 100.0 °F 101.8 °F 63.0 °F 29% 29.79 in 10.0 mi West 12.7 mph 16.1 mph N/A   Partly Cloudy
7:56 PM 96.1 °F - 41.0 °F 15% 29.80 in 10.0 mi WSW 16.1 mph - N/A   Partly Cloudy
8:56 PM 93.0 °F - 42.1 °F 17% 29.83 in 10.0 mi WSW 12.7 mph - N/A   Partly Cloudy
9:56 PM 91.0 °F - 44.1 °F 20% 29.84 in 10.0 mi WSW 10.4 mph - N/A   Clear
10:56 PM 90.0 °F - 44.1 °F 20% 29.83 in 10.0 mi WSW 12.7 mph - N/A   Clear
11:56 PM 88.0 °F - 45.0 °F 22% 29.83 in 10.0 mi WSW 6.9 mph - N/A   Clear